Location: Clay (historical)
(35.1476°N, 89.8179°W)
Time: 03:23:57
(UTC+00:00)

Hubble Space Telescope - Pass Details

Date: 18 February 2026
Orbit: 476 x 479 km, 28.5° (Epoch: 6 March)

Event Time Altitude Azimuth Distance (km) Brightness Sun altitude
Exits shadow 12:09:08 - 237° (WSW) 2,259 3.5 -7.4°
Reaches altitude 10° 12:10:55 10° 226° (SW) 1,637 2.9 -7.1°
Maximum altitude 12:14:01 24° 171° (S) 1,009 2.4 -6.4°
Drops below altitude 10° 12:17:08 10° 115° (ESE) 1,640 4.8 -5.8°
Sets 12:19:36 0° 101° (ESE) 2,519 7.3 -5.3°
